| time (UTC) | temp F | wind direction | speed MPH | gust MPH | rain 1hr in | rain 24hr in | rain mn in | humidity % | barometer mb |
| 20260505022037 | 68 | 204 | 6.0 | 8.0 | 0.00 | 0.02 | 0.00 | 5 | 1017.5 |
| 20260505021037 | 68 | 276 | 7.0 | 12.0 | 0.00 | 0.02 | 0.00 | 5 | 1017.6 |
| 20260505020037 | 68 | 239 | 7.0 | 7.0 | 0.00 | 0.03 | 0.00 | 5 | 1017.5 |
| 20260505015037 | 68 | 228 | 3.0 | 6.0 | 0.00 | 0.03 | 0.00 | 5 | 1017.8 |
| 20260505014037 | 67 | 254 | 9.0 | 11.0 | 0.00 | 0.03 | 0.00 | 5 | 1017.9 |
| 20260505013037 | 67 | 213 | 6.0 | 11.0 | 0.00 | 0.03 | 0.00 | 5 | 1018.1 |
| 20260505012037 | 67 | 222 | 4.0 | 4.0 | 0.00 | 0.03 | 0.00 | 5 | 1018.1 |
| 20260505011037 | 66 | 235 | 2.0 | 8.0 | 0.00 | 0.03 | 0.00 | 5 | 1018.0 |
| 20260505010037 | 66 | 260 | 7.0 | 8.0 | 0.00 | 0.03 | 0.00 | 5 | 1018.2 |
| 20260505005037 | 66 | 236 | 7.0 | 7.0 | 0.00 | 0.03 | 0.00 | 5 | 1018.4 |
| 20260505004037 | 65 | 230 | 3.0 | 7.0 | 0.00 | 0.03 | 0.00 | 5 | 1018.5 |
| 20260505003037 | 65 | 247 | 11.0 | 11.0 | 0.00 | 0.03 | 0.00 | 5 | 1018.6 |
| 20260505002037 | 65 | 234 | 6.0 | 9.0 | 0.00 | 0.03 | 0.00 | 5 | 1018.6 |
| 20260505001037 | 65 | 228 | 11.0 | 14.0 | 0.00 | 0.03 | 0.00 | 5 | 1018.6 |
| 20260505000037 | 65 | 282 | 7.0 | 12.0 | 0.00 | 0.03 | 0.00 | 5 | 1018.5 |
| 20260504235037 | 65 | 229 | 5.0 | 12.0 | 0.00 | 0.03 | 0.00 | 5 | 1018.7 |
| 20260504234037 | 64 | 268 | 4.0 | 9.0 | 0.00 | 0.03 | 0.00 | 6 | 1018.8 |
| 20260504233037 | 64 | 278 | 4.0 | 8.0 | 0.00 | 0.03 | 0.00 | 6 | 1018.9 |
| 20260504232037 | 64 | 307 | 8.0 | 10.0 | 0.00 | 0.03 | 0.00 | 6 | 1019.1 |
| 20260504231037 | 64 | 258 | 1.0 | 3.0 | 0.00 | 0.03 | 0.00 | 6 | 1019.3 |
| 20260504230037 | 64 | 246 | 2.0 | 8.0 | 0.00 | 0.03 | 0.00 | 6 | 1019.1 |
| 20260504225037 | 63 | 237 | 3.0 | 5.0 | 0.00 | 0.03 | 0.00 | 6 | 1019.0 |
| 20260504224037 | 62 | 266 | 4.0 | 4.0 | 0.00 | 0.03 | 0.00 | 6 | 1018.9 |
| 20260504223037 | 61 | 285 | 8.0 | 8.0 | 0.00 | 0.03 | 0.00 | 6 | 1018.6 |
| 20260504222037 | 61 | 344 | 4.0 | 5.0 | 0.00 | 0.03 | 0.00 | 6 | 1018.8 |
| 20260504221037 | 61 | 266 | 1.0 | 4.0 | 0.00 | 0.03 | 0.00 | 6 | 1018.9 |
| 20260504220037 | 60 | 261 | 5.0 | 6.0 | 0.00 | 0.03 | 0.00 | 6 | 1018.8 |
| 20260504215037 | 59 | 262 | 2.0 | 5.0 | 0.00 | 0.03 | 0.00 | 7 | 1018.4 |
| 20260504214037 | 59 | 268 | 4.0 | 8.0 | 0.00 | 0.03 | 0.00 | 7 | 1018.1 |
| 20260504213037 | 58 | 277 | 7.0 | 10.0 | 0.00 | 0.03 | 0.00 | 7 | 1018.1 |
| 20260504212037 | 57 | 275 | 6.0 | 8.0 | 0.00 | 0.03 | 0.00 | 7 | 1018.2 |
| 20260504211037 | 56 | 255 | 2.0 | 5.0 | 0.00 | 0.03 | 0.00 | 8 | 1018.1 |
| 20260504210037 | 56 | 291 | 2.0 | 4.0 | 0.00 | 0.03 | 0.00 | 8 | 1017.9 |
| 20260504205037 | 56 | 292 | 2.0 | 2.0 | 0.00 | 0.03 | 0.00 | 8 | 1017.6 |
| 20260504204037 | 56 | 302 | 3.0 | 3.0 | 0.00 | 0.03 | 0.00 | 8 | 1017.6 |
| 20260504203037 | 56 | 272 | 2.0 | 2.0 | 0.00 | 0.03 | 0.00 | 8 | 1017.4 |
| 20260504202037 | 57 | 267 | 1.0 | 2.0 | 0.00 | 0.03 | 0.00 | 8 | 1017.3 |
| 20260504201037 | 57 | 264 | 2.0 | 3.0 | 0.00 | 0.03 | 0.00 | 8 | 1017.2 |
| 20260504200037 | 58 | 239 | 3.0 | 4.0 | 0.00 | 0.03 | 0.00 | 8 | 1017.1 |
| 20260504195037 | 58 | 244 | 5.0 | 6.0 | 0.00 | 0.03 | 0.00 | 8 | 1016.9 |
| 20260504194037 | 58 | 255 | 3.0 | 5.0 | 0.00 | 0.03 | 0.00 | 8 | 1016.8 |
| 20260504193037 | 58 | 262 | 2.0 | 3.0 | 0.00 | 0.03 | 0.00 | 8 | 1016.7 |
| 20260504192037 | 59 | 244 | 3.0 | 5.0 | 0.00 | 0.03 | 0.00 | 7 | 1016.7 |
| 20260504191037 | 59 | 251 | 5.0 | 8.0 | 0.00 | 0.03 | 0.00 | 7 | 1016.7 |
| 20260504190036 | 59 | 247 | 4.0 | 8.0 | 0.00 | 0.03 | 0.00 | 7 | 1016.7 |
| 20260504185036 | 59 | 243 | 2.0 | 4.0 | 0.00 | 0.03 | 0.00 | 7 | 1016.6 |
| 20260504184036 | 59 | 255 | 2.0 | 3.0 | 0.00 | 0.03 | 0.00 | 7 | 1016.4 |
| 20260504183036 | 59 | 246 | 1.0 | 5.0 | 0.00 | 0.03 | 0.00 | 7 | 1016.2 |
| 20260504182036 | 59 | 249 | 3.0 | 5.0 | 0.00 | 0.03 | 0.00 | 7 | 1016.2 |
| 20260504181036 | 59 | 248 | 2.0 | 4.0 | 0.00 | 0.03 | 0.00 | 7 | 1016.0 |
| 20260504180036 | 60 | 253 | 4.0 | 4.0 | 0.00 | 0.03 | 0.00 | 7 | 1016.0 |
| 20260504175036 | 60 | 260 | 5.0 | 7.0 | 0.00 | 0.03 | 0.00 | 7 | 1015.9 |
| 20260504174036 | 60 | 247 | 4.0 | 9.0 | 0.00 | 0.03 | 0.00 | 7 | 1015.9 |
| 20260504173036 | 60 | 231 | 3.0 | 8.0 | 0.00 | 0.03 | 0.00 | 7 | 1016.0 |
| 20260504172036 | 61 | 241 | 2.0 | 4.0 | 0.00 | 0.03 | 0.00 | 7 | 1016.1 |
| 20260504171036 | 61 | 259 | 7.0 | 7.0 | 0.00 | 0.03 | 0.00 | 7 | 1016.3 |
| 20260504151035 | 62 | 249 | 4.0 | 5.0 | 0.00 | 0.03 | 0.00 | 8 | 1016.3 |
| 20260504141034 | 64 | 241 | 3.0 | 3.0 | 0.00 | 0.03 | 0.00 | 8 | 1016.5 |
| 20260504081028 | 66 | 0 | 0.0 | 0.0 | 0.00 | 0.03 | 0.03 | 8 | 1015.6 |
| 20260504045026 | 67 | 0 | 0.0 | 0.0 | 0.00 | 0.03 | 0.03 | 8 | 1014.9 |
| 20260504044026 | 66 | 347 | 1.0 | 3.0 | 0.00 | 0.03 | 0.03 | 8 | 1015.0 |
| 20260504043026 | 66 | 0 | 0.0 | 0.0 | 0.00 | 0.03 | 0.03 | 8 | 1015.2 |
| 20260504042026 | 67 | 0 | 0.0 | 0.0 | 0.00 | 0.03 | 0.03 | 8 | 1015.2 |
| 20260504041026 | 67 | 0 | 0.0 | 0.0 | 0.00 | 0.03 | 0.03 | 8 | 1015.2 |
| 20260504040026 | 66 | 0 | 0.0 | 0.0 | 0.00 | 0.03 | 0.03 | 8 | 1015.3 |
| 20260504035026 | 65 | 0 | 0.0 | 0.0 | 0.00 | 0.03 | 0.03 | 8 | 1015.3 |
| 20260504034026 | 65 | 0 | 0.0 | 0.0 | 0.00 | 0.03 | 0.03 | 8 | 1015.5 |
| 20260504033026 | 65 | 0 | 0.0 | 0.0 | 0.00 | 0.03 | 0.03 | 8 | 1015.6 |
| 20260504032026 | 65 | 0 | 0.0 | 0.0 | 0.01 | 0.03 | 0.03 | 8 | 1015.9 |
| 20260504031026 | 65 | 0 | 0.0 | 0.0 | 0.01 | 0.03 | 0.03 | 8 | 1015.9 |
| 20260504030026 | 65 | 0 | 0.0 | 1.0 | 0.02 | 0.03 | 0.03 | 8 | 1016.2 |
| 20260504025026 | 66 | 1 | 1.0 | 1.0 | 0.03 | 0.03 | 0.03 | 8 | 1016.5 |
| 20260504024026 | 66 | 0 | 0.0 | 0.0 | 0.02 | 0.02 | 0.02 | 8 | 1016.7 |
| 20260504023026 | 66 | 0 | 0.0 | 0.0 | 0.02 | 0.02 | 0.02 | 8 | 1016.8 |